GW4661 Weather Reports


time (UTC)temp
F
wind
direction
speed
knots
gust
knots
rain 1hr
in
rain 24hr
in
rain mn
in
humidity
%
barometer
mb
20260905123034 69 45 0.0 1.7 0.00 0.10 0.10 97 1011.8
20260905122522 69 0 0.0 0.9 0.00 0.10 0.10 97 1011.7
20260905122016 68 45 0.0 0.9 0.00 0.10 0.10 97 1011.8
20260905121532 68 0 0.0 0.9 0.00 0.10 0.10 97 1011.6
20260905121018 68 45 0.0 0.9 0.00 0.10 0.10 97 1011.8
20260905120516 68 0 0.0 0.9 0.00 0.10 0.10 97 1011.7
20260905120034 68 0 0.0 0.9 0.00 0.10 0.10 97 1011.5
20260905115516 68 0 0.0 0.9 0.00 0.10 0.10 97 1011.3
20260905115015 68 0 0.0 0.0 0.00 0.10 0.10 97 1011.4
20260905114532 68 0 0.0 0.0 0.00 0.10 0.10 97 1011.4
20260905114017 68 0 0.0 0.0 0.00 0.10 0.10 97 1011.4
20260905113520 68 0 0.0 0.0 0.00 0.10 0.10 97 1011.5
20260905113034 68 0 0.0 0.0 0.00 0.10 0.10 97 1011.5
20260905112516 67 0 0.0 0.0 0.00 0.10 0.10 97 1011.4
20260905112019 67 0 0.0 0.0 0.00 0.10 0.10 97 1011.2
20260905111533 67 0 0.0 0.9 0.00 0.10 0.10 97 1011.2
20260905111021 67 0 0.0 0.9 0.00 0.10 0.10 97 1011.0
20260905110518 67 0 0.0 0.9 0.00 0.10 0.10 97 1011.0
20260905110036 67 0 0.0 0.0 0.00 0.10 0.10 97 1011.1
20260905105517 67 0 0.0 0.0 0.00 0.10 0.10 97 1011.0
20260905105015 67 0 0.0 0.0 0.00 0.10 0.10 97 1010.9
20260905104535 67 0 0.0 0.0 0.00 0.10 0.10 97 1010.9
20260905104017 67 0 0.0 0.0 0.00 0.10 0.10 97 1010.8
20260905103517 67 0 0.0 0.0 0.00 0.10 0.10 97 1010.7
20260905103042 67 0 0.0 0.0 0.00 0.10 0.10 97 1010.7
20260905102518 67 0 0.0 0.0 0.00 0.10 0.10 97 1010.7
20260905102036 68 0 0.0 0.0 0.00 0.10 0.10 97 1010.6
20260905101532 68 0 0.0 0.0 0.00 0.10 0.10 97 1010.6
20260905101016 68 0 0.0 0.0 0.00 0.10 0.10 97 1010.5
20260905100524 68 0 0.0 0.0 0.00 0.10 0.10 97 1010.5
20260905100039 68 0 0.0 0.0 0.00 0.10 0.10 97 1010.5
20260905095517 68 0 0.0 0.0 0.00 0.10 0.10 97 1010.4
20260905095017 68 0 0.0 0.0 0.00 0.10 0.10 97 1010.5
20260905094536 68 0 0.0 0.0 0.00 0.10 0.10 97 1010.6
20260905094019 68 0 0.0 0.0 0.00 0.10 0.10 97 1010.7
20260905093516 69 0 0.0 0.0 0.00 0.10 0.10 97 1010.7
20260905093047 69 0 0.0 0.0 0.00 0.10 0.10 97 1010.7
20260905092519 69 0 0.0 0.0 0.00 0.10 0.10 97 1010.7
20260905092016 69 0 0.0 0.0 0.00 0.10 0.10 97 1010.7
20260905091537 69 0 0.0 0.0 0.00 0.10 0.10 97 1010.7
20260905091022 69 0 0.0 0.0 0.00 0.10 0.10 97 1010.7
20260905090517 69 0 0.0 0.0 0.00 0.10 0.10 97 1010.7
20260905090037 69 0 0.0 0.0 0.00 0.10 0.10 97 1010.5
20260905085521 69 0 0.0 0.0 0.00 0.10 0.10 97 1010.6
20260905085015 69 0 0.0 0.0 0.00 0.10 0.10 97 1010.5
20260905084535 69 0 0.0 0.0 0.00 0.10 0.10 97 1010.6
20260905084015 69 0 0.0 0.0 0.00 0.10 0.10 97 1010.6
20260905083516 69 0 0.0 0.0 0.00 0.10 0.10 97 1010.6
20260905083033 70 0 0.0 0.0 0.00 0.10 0.10 97 1010.5
20260905082516 70 0 0.0 0.0 0.00 0.10 0.10 97 1010.4
20260905082018 70 0 0.0 0.0 0.00 0.10 0.10 97 1010.4
20260905081533 69 0 0.0 0.0 0.00 0.10 0.10 97 1010.5
20260905081016 70 0 0.0 0.0 0.00 0.10 0.10 97 1010.4
20260905080517 70 0 0.0 0.0 0.00 0.10 0.10 97 1010.6
20260905080038 70 0 0.0 0.0 0.00 0.10 0.10 97 1010.5
20260905075518 70 0 0.0 0.0 0.02 0.10 0.10 97 1010.4
20260905075018 70 0 0.0 0.0 0.04 0.10 0.10 97 1010.5
20260905074536 70 0 0.0 0.0 0.04 0.10 0.10 97 1010.6
20260905074019 70 0 0.0 0.0 0.04 0.10 0.10 97 1010.5
20260905073519 70 0 0.0 0.0 0.04 0.10 0.10 97 1010.5
20260905073035 70 0 0.0 0.0 0.04 0.10 0.10 97 1010.4
20260905072516 70 0 0.0 0.0 0.04 0.10 0.10 97 1010.4
20260905072015 70 0 0.0 0.0 0.04 0.10 0.10 97 1010.4
20260905071532 70 0 0.0 0.0 0.04 0.10 0.10 97 1010.6
20260905071021 70 0 0.0 0.0 0.04 0.10 0.10 96 1010.7
20260905070515 71 0 0.0 0.9 0.04 0.10 0.10 96 1010.7
20260905070035 71 0 0.0 0.9 0.04 0.10 0.10 97 1010.7
20260905065517 71 0 0.0 0.9 0.01 0.07 0.07 97 1010.8
20260905065016 71 0 0.0 0.0 0.00 0.06 0.06 96 1010.9
20260905064535 71 0 0.0 0.0 0.00 0.06 0.06 96 1010.8
20260905064020 71 0 0.0 0.0 0.01 0.06 0.06 96 1010.9
20260905063520 71 0 0.0 0.0 0.05 0.06 0.06 96 1010.8
20260905063033 71 0 0.0 0.0 0.06 0.06 0.06 97 1011.0
20260905062518 71 0 0.0 0.0 0.06 0.06 0.06 96 1011.0
20260905062018 71 0 0.0 0.0 0.06 0.06 0.06 96 1011.2
20260905061536 71 0 0.0 0.0 0.06 0.06 0.06 96 1011.1
20260905061017 71 0 0.0 0.9 0.06 0.06 0.06 96 1011.2
20260905060517 71 0 0.0 0.9 0.06 0.06 0.06 96 1011.1
20260905060035 71 0 0.0 0.9 0.06 0.06 0.06 96 1011.3
20260905055519 72 0 0.0 0.9 0.06 0.06 0.06 95 1011.4
20260905055024 72 0 0.0 0.0 0.06 0.06 0.06 95 1011.4
20260905054536 73 0 0.0 1.7 0.06 0.06 0.06 95 1011.4
20260905054019 73 0 0.0 1.7 0.04 0.04 0.04 95 1011.4
20260905053516 73 60 0.0 0.9 0.00 0.00 0.00 95 1011.6
20260905053037 73 0 0.0 0.9 0.00 0.00 0.00 95 1011.7
20260905052540 73 0 0.0 0.9 0.00 0.00 0.00 94 1011.5
20260905052018 73 0 0.0 0.9 0.00 0.00 0.00 94 1011.6
20260905051534 73 0 0.0 0.9 0.00 0.00 0.00 94 1011.5
20260905051017 74 0 0.0 1.7 0.00 0.00 0.00 94 1011.7
20260905050519 74 352 0.0 3.5 0.00 0.00 0.00 93 1011.6
20260905050035 74 352 0.0 5.2 0.00 0.00 0.00 93 1011.5
20260905045515 74 282 0.9 5.2 0.00 0.00 0.00 94 1011.4
20260905045015 74 0 0.0 1.7 0.00 0.00 0.00 94 1011.5
20260905044535 74 0 0.0 1.7 0.00 0.00 0.00 94 1011.5
20260905044015 74 0 0.0 0.9 0.00 0.00 0.00 94 1011.5
20260905043519 73 150 0.0 0.9 0.00 0.00 0.00 94 1011.5
20260905043031 73 150 0.0 0.9 0.00 0.00 0.00 94 1011.5
20260905042518 73 0 0.0 0.0 0.00 0.00 0.00 94 1011.5
20260905042017 73 0 0.0 0.0 0.00 0.00 0.00 94 1011.4
20260905041535 73 0 0.0 0.0 0.00 0.00 0.00 94 1011.4
20260905041015 73 0 0.0 0.0 0.00 0.00 0.00 94 1011.5
20260905040517 73 0 0.0 0.0 0.00 0.00 0.00 94 1011.5
20260905040035 73 0 0.0 0.0 0.00 0.00 0.00 94 1011.4
20260905035515 74 0 0.0 0.0 0.00 0.00 0.00 94 1011.6
20260905035017 74 0 0.0 0.0 0.00 0.00 0.00 94 1011.6
20260905034535 73 0 0.0 0.0 0.00 0.00 0.00 94 1011.6
20260905034016 73 0 0.0 0.0 0.00 0.00 0.00 94 1011.6
20260905033519 73 0 0.0 0.0 0.00 0.00 0.00 94 1011.6
20260905033035 73 0 0.0 0.0 0.00 0.00 0.00 94 1011.6
20260905032518 73 0 0.0 0.0 0.00 0.00 0.00 94 1011.7
20260905032019 74 0 0.0 0.0 0.00 0.00 0.00 94 1011.6
20260905031542 74 0 0.0 0.0 0.00 0.00 0.00 94 1011.6
20260905031016 74 0 0.0 0.0 0.00 0.00 0.00 94 1011.6
20260905030516 74 0 0.0 0.0 0.00 0.00 0.00 94 1011.6
20260905030035 74 0 0.0 0.0 0.00 0.00 0.00 94 1011.7
20260905025515 74 0 0.0 0.0 0.00 0.00 0.00 94 1011.7
20260905025017 74 0 0.0 0.0 0.00 0.00 0.00 94 1011.6
20260905024535 74 0 0.0 0.0 0.00 0.00 0.00 94 1011.6
20260905024017 74 0 0.0 0.0 0.00 0.00 0.00 94 1011.6
20260905023519 74 0 0.0 0.0 0.00 0.00 0.00 94 1011.5
20260905023130 74 0 0.0 0.0 0.00 0.00 0.00 94 1011.5
20260905022516 74 0 0.0 0.0 0.00 0.00 0.00 94 1011.5
20260905022017 74 0 0.0 0.0 0.00 0.00 0.00 93 1011.5
20260905021536 74 0 0.0 0.0 0.00 0.00 0.00 93 1011.5
20260905021016 74 0 0.0 0.0 0.00 0.00 0.00 93 1011.5
20260905020518 74 0 0.0 0.0 0.00 0.00 0.00 93 1011.6
20260905020045 74 0 0.0 0.0 0.00 0.00 0.00 93 1011.6
20260905015517 74 0 0.0 0.0 0.00 0.00 0.00 93 1011.6
20260905015020 74 0 0.0 0.0 0.00 0.00 0.00 93 1011.6
20260905014534 74 0 0.0 0.0 0.00 0.00 0.00 93 1011.6
20260905014018 74 0 0.0 0.0 0.00 0.00 0.00 93 1011.6
20260905013519 74 0 0.0 0.0 0.00 0.00 0.00 93 1011.6
20260905013046 74 0 0.0 0.0 0.00 0.00 0.00 93 1011.6
20260905012516 74 0 0.0 0.0 0.00 0.00 0.00 93 1011.6
20260905012016 74 0 0.0 0.0 0.00 0.00 0.00 93 1011.6
20260905011605 74 0 0.0 0.0 0.00 0.00 0.00 93 1011.6
20260905011018 74 0 0.0 0.0 0.00 0.00 0.00 93 1011.6
20260905010518 74 0 0.0 0.0 0.00 0.00 0.00 93 1011.7
20260905010036 74 0 0.0 0.0 0.00 0.00 0.00 93 1011.7
20260905005517 74 0 0.0 0.0 0.00 0.00 0.00 92 1011.7
20260905005018 74 0 0.0 0.0 0.00 0.00 0.00 92 1011.6
20260905004535 74 0 0.0 0.0 0.00 0.00 0.00 92 1011.6
20260905004019 74 0 0.0 0.0 0.00 0.00 0.00 92 1011.5
20260905003517 74 0 0.0 0.0 0.00 0.00 0.00 92 1011.5
20260905003039 74 0 0.0 0.0 0.00 0.00 0.00 92 1011.5
20260905002517 74 0 0.0 0.0 0.00 0.00 0.00 91 1011.4
20260905002018 75 0 0.0 0.0 0.00 0.00 0.00 91 1011.2
20260905001545 75 0 0.0 0.0 0.00 0.00 0.00 91 1011.1
20260905001019 75 0 0.0 0.0 0.00 0.00 0.00 90 1011.0
20260905000516 75 0 0.0 0.0 0.00 0.00 0.00 90 1010.9
20260905000034 75 0 0.0 0.0 0.00 0.00 0.00 90 1011.0
20260904235617 75 0 0.0 0.0 0.00 0.00 0.00 89 1011.0
20260904235021 76 0 0.0 0.0 0.00 0.00 0.00 89 1011.0
20260904234538 76 0 0.0 0.0 0.00 0.00 0.00 89 1011.1
20260904234017 76 0 0.0 0.0 0.00 0.00 0.00 89 1011.2
20260904233519 76 0 0.0 0.0 0.00 0.00 0.00 88 1011.2
20260904233100 77 0 0.0 0.0 0.00 0.00 0.00 87 1011.2
20260904232518 77 0 0.0 0.0 0.00 0.00 0.00 87 1011.2
20260904232018 77 0 0.0 0.0 0.00 0.00 0.00 88 1011.2
20260904231534 77 0 0.0 0.0 0.00 0.00 0.00 87 1011.3
20260904231018 78 0 0.0 0.0 0.00 0.00 0.00 88 1011.3
20260904230517 78 0 0.0 0.0 0.00 0.00 0.00 88 1011.4
20260904230036 78 0 0.0 0.0 0.00 0.00 0.00 88 1011.3
20260904225522 78 0 0.0 0.0 0.00 0.00 0.00 88 1011.4
20260904225017 78 0 0.0 0.9 0.00 0.00 0.00 87 1011.4
20260904224533 78 0 0.0 0.9 0.00 0.00 0.00 87 1011.4
20260904224017 79 0 0.0 0.9 0.00 0.00 0.00 87 1011.4
20260904223517 79 0 0.0 0.0 0.00 0.00 0.00 86 1011.4
20260904223035 79 0 0.0 0.9 0.00 0.00 0.00 85 1011.5
20260904222519 79 0 0.0 0.9 0.00 0.00 0.00 85 1011.4
20260904222017 80 0 0.0 0.9 0.00 0.00 0.00 83 1011.3
20260904221534 80 0 0.0 0.9 0.00 0.00 0.00 83 1011.4
20260904221017 80 0 0.0 0.9 0.00 0.00 0.00 83 1011.4
20260904220519 80 0 0.0 0.9 0.00 0.00 0.00 83 1011.4
20260904220036 80 0 0.0 0.9 0.00 0.00 0.00 83 1011.4
20260904215520 80 0 0.0 0.9 0.00 0.00 0.00 82 1011.4
20260904215017 81 0 0.0 0.9 0.00 0.00 0.00 82 1011.5
20260904214532 81 0 0.0 0.9 0.00 0.00 0.00 82 1011.5
20260904214018 81 0 0.0 0.9 0.00 0.00 0.00 82 1011.4
20260904213518 81 0 0.0 0.9 0.00 0.00 0.00 82 1011.5
20260904213034 81 0 0.0 1.7 0.00 0.00 0.00 80 1011.4
20260904212519 81 0 0.0 2.6 0.00 0.00 0.00 80 1011.4
20260904212016 82 0 0.0 2.6 0.00 0.00 0.00 79 1011.3
20260904211534 82 279 0.0 2.6 0.00 0.00 0.00 79 1011.2
20260904211021 82 0 0.0 1.7 0.00 0.00 0.00 77 1011.3
20260904210517 82 0 0.0 1.7 0.00 0.00 0.00 77 1011.3
20260904210104 82 0 0.0 0.9 0.00 0.00 0.00 80 1011.3
20260904205520 82 0 0.0 0.9 0.00 0.00 0.00 79 1011.4
20260904205017 83 0 0.0 0.9 0.00 0.00 0.00 76 1011.4
20260904204534 83 0 0.0 0.9 0.00 0.00 0.00 74 1011.4
20260904204020 83 0 0.0 1.7 0.00 0.00 0.00 74 1011.4
20260904203603 84 0 0.0 1.7 0.00 0.00 0.00 73 1011.4
20260904203036 84 0 0.0 1.7 0.00 0.00 0.00 74 1011.3
20260904202517 84 14 0.0 1.7 0.00 0.00 0.00 72 1011.3
20260904202016 84 0 0.0 1.7 0.00 0.00 0.00 71 1011.4
20260904201534 84 294 0.0 3.5 0.00 0.00 0.00 71 1011.4
20260904201016 84 0 0.0 3.5 0.00 0.00 0.00 70 1011.4
20260904200516 85 146 0.0 3.5 0.00 0.00 0.00 67 1011.5
20260904200034 86 0 0.0 5.2 0.00 0.00 0.00 68 1011.5
20260904195518 85 22 0.9 5.2 0.00 0.00 0.00 66 1011.5
20260904195017 85 0 0.0 2.6 0.00 0.00 0.00 69 1011.5
20260904194547 86 0 0.0 2.6 0.00 0.00 0.00 66 1011.6
20260904194017 86 232 0.0 1.7 0.00 0.00 0.00 69 1011.7
20260904193519 86 269 0.0 5.2 0.00 0.00 0.00 65 1011.7
20260904193037 87 0 0.0 5.2 0.00 0.00 0.00 68 1011.9
20260904192516 87 199 0.0 6.1 0.00 0.00 0.00 65 1011.9
20260904192019 87 0 0.9 6.1 0.00 0.00 0.00 62 1012.0
20260904191534 87 0 0.9 3.5 0.00 0.00 0.00 67 1012.2
20260904191018 86 0 0.0 3.5 0.00 0.00 0.00 72 1012.0
20260904190520 84 265 0.0 2.6 0.00 0.00 0.00 73 1012.0
20260904190036 84 0 0.0 1.7 0.00 0.00 0.00 76 1012.0
20260904185519 85 0 0.0 1.7 0.00 0.00 0.00 71 1012.1
20260904185017 85 0 0.0 2.6 0.00 0.00 0.00 69 1012.1
20260904184537 85 311 0.0 2.6 0.00 0.00 0.00 72 1012.2
20260904184019 85 242 0.0 1.7 0.00 0.00 0.00 71 1012.2
20260904183519 85 243 0.0 1.7 0.00 0.00 0.00 70 1012.2
20260904183047 84 284 0.0 1.7 0.00 0.00 0.00 73 1012.3
20260904182516 84 0 0.0 0.9 0.00 0.00 0.00 71 1012.3
20260904182025 86 201 0.0 3.5 0.00 0.00 0.00 66 1012.3
20260904181550 87 0 0.0 3.5 0.00 0.00 0.00 68 1012.3
20260904181015 86 98 0.0 2.6 0.00 0.00 0.00 66 1012.3
20260904180522 86 0 0.0 1.7 0.00 0.00 0.00 67 1012.3
20260904180033 85 347 0.0 2.6 0.00 0.00 0.00 68 1012.3
20260904175517 86 360 0.0 2.6 0.00 0.00 0.00 66 1012.2
20260904175017 87 12 0.9 3.5 0.00 0.00 0.00 67 1012.2
20260904174536 86 0 0.9 3.5 0.00 0.00 0.00 63 1012.3
20260904174019 86 193 0.9 3.5 0.00 0.00 0.00 67 1012.4
20260904173519 86 264 1.7 3.5 0.00 0.00 0.00 68 1012.5
20260904173037 86 138 0.9 3.5 0.00 0.00 0.00 68 1012.5
20260904172616 85 271 0.0 3.5 0.00 0.00 0.00 70 1012.4
20260904172020 86 263 0.9 5.2 0.00 0.00 0.00 69 1012.5
20260904171539 86 223 0.9 5.2 0.00 0.00 0.00 67 1012.5
20260904171016 87 0 0.0 5.2 0.00 0.00 0.00 72 1012.6
20260904170516 86 252 0.9 5.2 0.00 0.00 0.00 72 1012.5
20260904170036 86 336 0.9 4.3 0.00 0.00 0.00 68 1012.4
20260904165522 85 0 0.9 5.2 0.00 0.00 0.00 67 1012.5
20260904165019 85 0 0.9 5.2 0.00 0.00 0.00 69 1012.5
20260904164540 85 360 0.9 5.2 0.00 0.00 0.00 69 1012.4
20260904164019 85 9 0.0 1.7 0.00 0.00 0.00 73 1012.5
20260904163519 85 243 0.0 2.6 0.00 0.00 0.00 71 1012.4
20260904163035 85 12 0.0 2.6 0.00 0.00 0.00 73 1012.4
20260904162518 86 269 0.9 2.6 0.00 0.00 0.00 70 1012.5
20260904162018 85 0 0.0 2.6 0.00 0.00 0.00 68 1012.5
20260904161537 86 140 0.0 2.6 0.00 0.00 0.00 74 1012.5
20260904161016 85 9 0.9 3.5 0.00 0.00 0.00 72 1012.7
20260904160559 85 305 0.9 3.5 0.00 0.00 0.00 74 1012.7
20260904160033 84 245 0.9 3.5 0.00 0.00 0.00 73 1012.8
20260904155529 85 105 0.9 3.5 0.00 0.00 0.00 70 1012.8
20260904155017 84 300 0.0 2.6 0.00 0.00 0.00 73 1012.9
20260904154544 84 230 0.9 3.5 0.00 0.00 0.00 75 1012.9
20260904154022 84 0 0.0 3.5 0.00 0.00 0.00 74 1012.9
20260904153517 84 0 0.9 3.5 0.00 0.00 0.00 74 1012.8
20260904153036 84 288 0.9 3.5 0.00 0.00 0.00 73 1012.9
20260904152518 84 250 0.9 5.2 0.00 0.00 0.00 74 1012.9
20260904152017 84 360 0.9 5.2 0.00 0.00 0.00 75 1012.9
20260904151536 83 132 0.9 3.5 0.00 0.00 0.00 75 1012.8
20260904151020 83 78 0.9 3.5 0.00 0.00 0.00 77 1012.9
20260904150517 83 307 0.9 3.5 0.00 0.00 0.00 76 1012.9
20260904150034 83 267 0.9 3.5 0.00 0.00 0.00 76 1012.9
20260904145520 83 285 0.9 5.2 0.00 0.00 0.00 76 1013.1
20260904145020 83 5 0.0 5.2 0.00 0.00 0.00 79 1013.0
20260904144554 82 56 0.9 4.3 0.00 0.00 0.00 77 1012.9
20260904144019 82 330 0.0 3.5 0.00 0.00 0.00 79 1012.9
20260904143519 81 325 0.9 2.6 0.00 0.00 0.00 78 1012.9
20260904143037 81 260 0.0 3.5 0.00 0.00 0.00 79 1012.9
20260904142522 81 290 0.0 5.2 0.00 0.00 0.00 80 1012.9
20260904142019 81 0 0.0 5.2 0.00 0.00 0.00 80 1013.0
20260904141532 81 0 0.0 2.6 0.00 0.00 0.00 80 1013.0
20260904141017 80 340 0.0 4.3 0.00 0.00 0.00 80 1013.0
20260904140524 80 0 0.9 6.1 0.00 0.00 0.00 80 1012.9
20260904140044 80 30 0.0 6.1 0.00 0.00 0.00 81 1013.0
20260904135518 80 263 0.9 4.3 0.00 0.00 0.00 81 1012.9
20260904135017 79 0 0.9 2.6 0.00 0.00 0.00 82 1013.0
20260904134536 79 0 0.0 2.6 0.00 0.00 0.00 83 1012.9
20260904134018 79 0 0.9 2.6 0.00 0.00 0.00 83 1012.9
20260904133518 79 348 0.9 2.6 0.00 0.00 0.00 83 1012.9
20260904133123 79 0 0.0 2.6 0.00 0.00 0.00 83 1012.9
20260904132516 78 256 0.0 2.6 0.00 0.00 0.00 84 1012.9
20260904132020 78 63 0.0 3.5 0.00 0.00 0.00 85 1012.7
20260904131532 78 198 0.9 4.3 0.00 0.00 0.00 84 1012.7
20260904131019 78 279 0.9 4.3 0.00 0.00 0.00 84 1012.8
20260904130519 78 0 0.9 4.3 0.00 0.00 0.00 85 1012.8
20260904130054 78 265 0.0 2.6 0.00 0.00 0.00 85 1012.9
20260904125518 77 329 0.0 3.5 0.00 0.00 0.00 86 1012.9
20260904125019 77 0 0.9 3.5 0.00 0.00 0.00 87 1013.0
20260904124534 77 13 0.0 3.5 0.00 0.00 0.00 88 1013.0
20260904124017 76 0 0.9 3.5 0.00 0.00 0.00 88 1013.1